Zurück zum Katalog

STARLINK-34672

AktivKommunikationVLEO
NORAD 65894·PAYLOAD·🇺🇸 United States

Gestartet Oct 7, 2025 von Cape Canaveral Space Force Station

Loading…

Nächste Überflüge (nächste 24 Stunden)

TLE

AktuellSource: CelesTrak SupGP

Epoche: Sep 14, 2026, 22:34 UTC

1 65894C 25224N   26257.94076389  .00003316  00000+0  97923-4 0  2578
2 65894  53.1589 211.8504 0001453 101.4612 332.7780 15.34401285    18

Verfolge STARLINK-34672 in Echtzeit mit AllMySat

Download on the App Store